Weather History for Menominee, MI

Change the Weather History Date:

Sunday, November 3, 2013

  Actual Average Record
Temperature  
Mean Temperature 36 °F -  
Max Temperature 46 °F 50 °F 70 °F (1990)
Min Temperature 26 °F 34 °F 6 °F (1951)
Degree Days  
Heating Degree Days 29    
Moisture  
Dew Point 33 °F    
Average Humidity 81    
Maximum Humidity 100    
Minimum Humidity 66    
Precipitation  
Precipitation 0.00 in - - ()
Sea Level Pressure  
Sea Level Pressure 30.24 in    
Wind  
Wind Speed 5 mph (South)    
Max Wind Speed 17 mph    
Max Gust Speed 25 mph    
Visibility 10 miles    
Events      
Averages and records for this station are not official NWS values.
T = Trace of Precipitation, MM = Missing Value Source: NWS Daily Summary

Daily Weather History Graph

Daily Weather History Graph

Search for Another Location

Airport:

Trip Planner

Search our weather history database for the weather conditions in past years. The results will help you decide how hot, cold, wet, or windy it might be!

Date:

Astronomy

Nov. 03, 2013 Rise Set
Actual Time 6:32 AM CST 4:35 PM CST
Civil Twilight 6:01 AM CST 5:06 PM CST
Nautical Twilight 5:26 AM CST 5:40 PM CST
Astronomical Twilight 4:52 AM CST 6:15 PM CST
Moon 6:36 AM CST (11/3) 4:48 PM CST (11/3)
Length of Visible Light 11h 04m
Length of Day
10h 02m
New Moon, 0% of the Moon is Illuminated
Nov 3
New Moon
Nov 9
First Quarter
Nov 17
Full
Nov 25
Last Quarter
Dec 2
New

Hourly Weather History & Observations

Time (CST) Temp. Windchill Dew Point Humidity Pressure Visibility Wind Dir Wind Speed Gust Speed Precip Events Conditions
12:15 AM 30.2 °F - 28.4 °F 93% 30.15 in 10.0 mi Calm Calm - N/A   Clear
12:35 AM 30.2 °F - 28.4 °F 93% 30.16 in 10.0 mi Calm Calm - N/A   Clear
12:55 AM 30.2 °F 26.7 °F 28.4 °F 93% 30.16 in 10.0 mi North 3.5 mph - N/A   Clear
1:15 AM 28.4 °F - 28.4 °F 100% 30.17 in 10.0 mi Calm Calm - N/A   Clear
1:35 AM 30.2 °F - 28.4 °F 93% 30.17 in 10.0 mi Calm Calm - N/A   Clear
1:55 AM 30.2 °F 26.7 °F 28.4 °F 93% 30.17 in 10.0 mi North 3.5 mph - N/A   Clear
1:15 AM 30.2 °F 26.7 °F 28.4 °F 93% 30.17 in 10.0 mi North 3.5 mph - N/A   Clear
1:35 AM 28.4 °F - 26.6 °F 93% 30.18 in 10.0 mi Calm Calm - N/A   Clear
1:55 AM 28.4 °F 24.6 °F 28.4 °F 100% 30.19 in 10.0 mi NNW 3.5 mph - N/A   Clear
2:15 AM 28.4 °F 24.6 °F 28.4 °F 100% 30.20 in 10.0 mi NNW 3.5 mph - N/A   Clear
2:35 AM 28.4 °F 23.3 °F 28.4 °F 100% 30.21 in 10.0 mi NNW 4.6 mph - N/A   Scattered Clouds
2:55 AM 28.4 °F 23.3 °F 28.4 °F 100% 30.21 in 10.0 mi North 4.6 mph - N/A   Overcast
3:15 AM 30.2 °F 26.7 °F 28.4 °F 93% 30.22 in 10.0 mi NNW 3.5 mph - N/A   Overcast
3:35 AM 30.2 °F 26.7 °F 26.6 °F 86% 30.22 in 10.0 mi NNW 3.5 mph - N/A   Scattered Clouds
3:55 AM 28.4 °F 24.6 °F 26.6 °F 93% 30.22 in 10.0 mi NNW 3.5 mph - N/A   Clear
4:15 AM 30.2 °F - 26.6 °F 86% 30.22 in 10.0 mi Calm Calm - N/A   Clear
4:35 AM 26.6 °F - 26.6 °F 100% 30.23 in 10.0 mi Calm Calm - N/A   Clear
4:55 AM 28.4 °F 24.6 °F 26.6 °F 93% 30.23 in 10.0 mi North 3.5 mph - N/A   Clear
5:15 AM 28.4 °F - 26.6 °F 93% 30.23 in 10.0 mi Calm Calm - N/A   Clear
5:35 AM 28.4 °F 24.6 °F 26.6 °F 93% 30.24 in 10.0 mi NNW 3.5 mph - N/A   Mostly Cloudy
5:55 AM 28.4 °F - 26.6 °F 93% 30.24 in 10.0 mi Calm Calm - N/A   Mostly Cloudy
6:15 AM 28.4 °F - 26.6 °F 93% 30.24 in 10.0 mi Calm Calm - N/A   Partly Cloudy
6:35 AM 28.4 °F - 26.6 °F 93% 30.25 in 10.0 mi Calm Calm - N/A   Clear
6:55 AM 26.6 °F - 26.6 °F 100% 30.26 in 10.0 mi Calm Calm - N/A   Clear
7:15 AM 28.4 °F - 28.4 °F 100% 30.27 in 10.0 mi Calm Calm - N/A   Clear
7:35 AM 30.2 °F - 28.4 °F 93% 30.28 in 10.0 mi Calm Calm - N/A   Clear
7:55 AM 32.0 °F - 28.4 °F 87% 30.28 in 10.0 mi Calm Calm - N/A   Clear
8:15 AM 33.8 °F - 32.0 °F 93% 30.27 in 10.0 mi Calm Calm - N/A   Clear
8:35 AM 37.4 °F - 35.6 °F 93% 30.28 in 10.0 mi Calm Calm - N/A   Clear
8:55 AM 39.2 °F - 35.6 °F 87% 30.28 in 10.0 mi Calm Calm - N/A   Partly Cloudy
9:15 AM 42.8 °F 41.1 °F 35.6 °F 76% 30.28 in 10.0 mi South 3.5 mph - N/A   Scattered Clouds
9:35 AM 42.8 °F 39.3 °F 35.6 °F 76% 30.29 in 10.0 mi WSW 5.8 mph - N/A   Mostly Cloudy
9:55 AM 42.8 °F 38.0 °F 35.6 °F 76% 30.29 in 10.0 mi South 8.1 mph - N/A   Scattered Clouds
10:15 AM 42.8 °F 39.3 °F 33.8 °F 70% 30.29 in 10.0 mi SSW 5.8 mph - N/A   Scattered Clouds
10:35 AM 44.6 °F 40.2 °F 33.8 °F 66% 30.30 in 10.0 mi SSW 8.1 mph - N/A   Mostly Cloudy
10:55 AM 44.6 °F 39.7 °F 33.8 °F 66% 30.30 in 10.0 mi SSW 9.2 mph - N/A   Mostly Cloudy
11:15 AM 44.6 °F 39.7 °F 33.8 °F 66% 30.29 in 10.0 mi SW 9.2 mph - N/A   Mostly Cloudy
11:35 AM 44.6 °F 41.4 °F 35.6 °F 71% 30.28 in 10.0 mi SSE 5.8 mph - N/A   Mostly Cloudy
11:55 AM 44.6 °F 40.2 °F 33.8 °F 66% 30.27 in 10.0 mi South 8.1 mph - N/A   Mostly Cloudy
12:15 PM 44.6 °F 38.4 °F 33.8 °F 66% 30.27 in 10.0 mi South 12.7 mph - N/A   Overcast
12:35 PM 44.6 °F 39.2 °F 33.8 °F 66% 30.27 in 10.0 mi South 10.4 mph 16.1 mph N/A   Overcast
12:55 PM 44.6 °F 38.1 °F 35.6 °F 71% 30.26 in 10.0 mi South 13.8 mph 17.3 mph N/A   Overcast
1:15 PM 44.6 °F 39.2 °F 35.6 °F 71% 30.27 in 10.0 mi South 10.4 mph - N/A   Overcast
1:35 PM 44.6 °F 38.1 °F 35.6 °F 71% 30.26 in 10.0 mi South 13.8 mph - N/A   Mostly Cloudy
1:55 PM 44.6 °F 38.8 °F 35.6 °F 71% 30.26 in 10.0 mi SSE 11.5 mph 18.4 mph N/A   Overcast
2:15 PM 44.6 °F 38.8 °F 35.6 °F 71% 30.26 in 10.0 mi SSE 11.5 mph 17.3 mph N/A   Mostly Cloudy
2:35 PM 44.6 °F 40.2 °F 35.6 °F 71% 30.27 in 10.0 mi South 8.1 mph - N/A   Mostly Cloudy
2:55 PM 44.6 °F 38.8 °F 37.4 °F 76% 30.26 in 9.0 mi SSE 11.5 mph - N/A   Overcast
3:15 PM 44.6 °F 38.4 °F 37.4 °F 76% 30.26 in 10.0 mi South 12.7 mph 17.3 mph N/A   Mostly Cloudy
3:35 PM 44.6 °F 38.4 °F 37.4 °F 76% 30.26 in 10.0 mi SSE 12.7 mph 17.3 mph N/A   Mostly Cloudy
3:55 PM 44.6 °F 38.1 °F 35.6 °F 71% 30.26 in 10.0 mi South 13.8 mph 18.4 mph N/A   Overcast
4:15 PM 44.6 °F 39.2 °F 35.6 °F 71% 30.25 in 10.0 mi SSE 10.4 mph - N/A   Overcast
4:35 PM 44.6 °F 38.8 °F 35.6 °F 71% 30.25 in 10.0 mi South 11.5 mph 18.4 mph N/A   Overcast
4:55 PM 44.6 °F 38.4 °F 35.6 °F 71% 30.26 in 10.0 mi SSE 12.7 mph 16.1 mph N/A   Overcast
5:15 PM 42.8 °F 35.4 °F 35.6 °F 76% 30.25 in 10.0 mi SSE 15.0 mph - N/A   Overcast
5:35 PM 44.6 °F 38.1 °F 35.6 °F 71% 30.25 in 10.0 mi SSE 13.8 mph 18.4 mph N/A   Overcast
5:55 PM 44.6 °F 38.4 °F 37.4 °F 76% 30.25 in 10.0 mi SSE 12.7 mph 16.1 mph N/A   Overcast
6:15 PM 44.6 °F 38.1 °F 35.6 °F 71% 30.25 in 10.0 mi South 13.8 mph 19.6 mph N/A   Overcast
6:35 PM 44.6 °F 39.2 °F 35.6 °F 71% 30.25 in 10.0 mi South 10.4 mph 19.6 mph N/A   Overcast
6:55 PM 44.6 °F 38.8 °F 37.4 °F 76% 30.25 in 10.0 mi South 11.5 mph 17.3 mph N/A   Overcast
7:15 PM 44.6 °F 37.8 °F 37.4 °F 76% 30.25 in 10.0 mi SSE 15.0 mph - N/A   Overcast
7:35 PM 44.6 °F 39.7 °F 37.4 °F 76% 30.25 in 10.0 mi South 9.2 mph 17.3 mph N/A   Overcast
7:55 PM 44.6 °F 38.8 °F 37.4 °F 76% 30.25 in 10.0 mi South 11.5 mph - N/A   Overcast
8:15 PM 44.6 °F 39.7 °F 37.4 °F 76% 30.25 in 10.0 mi South 9.2 mph 18.4 mph N/A   Scattered Clouds
8:35 PM 44.6 °F 38.8 °F 35.6 °F 71% 30.25 in 10.0 mi South 11.5 mph 18.4 mph N/A   Clear
8:55 PM 44.6 °F 40.2 °F 37.4 °F 76% 30.25 in 10.0 mi SSE 8.1 mph - N/A   Scattered Clouds
9:15 PM 44.6 °F 38.8 °F 37.4 °F 76% 30.25 in 10.0 mi South 11.5 mph 18.4 mph N/A   Mostly Cloudy
9:35 PM 46.4 °F 39.8 °F 37.4 °F 71% 30.25 in 10.0 mi South 16.1 mph 21.9 mph N/A   Overcast
9:55 PM 44.6 °F 37.4 °F 37.4 °F 76% 30.26 in 10.0 mi South 16.1 mph 25.3 mph N/A   Overcast
10:15 PM 44.6 °F 37.8 °F 37.4 °F 76% 30.25 in 10.0 mi South 15.0 mph 20.7 mph N/A   Overcast
10:35 PM 44.6 °F 37.2 °F 37.4 °F 76% 30.24 in 10.0 mi South 17.3 mph 25.3 mph N/A   Overcast
10:55 PM 44.6 °F 38.4 °F 37.4 °F 76% 30.24 in 10.0 mi South 12.7 mph 24.2 mph N/A   Mostly Cloudy